Mt. Pocono, PA

5:03 AM EDT on March 24, 2017 (GMT -0400)
Pocono Mountains Municipal

Weather History for KMPO - November, 2013

Change the Weather History Date:

Friday, November 22, 2013

  Actual Average Record
Temperature  
Mean Temperature 44 °F 36 °F  
Max Temperature 48 °F 43 °F 66 °F (1931)
Min Temperature 40 °F 30 °F 5 °F (1969)
Degree Days  
Heating Degree Days 21 29  
Month to date heating degree days 553 546  
Since 1 July heating degree days 1284 1334  
Cooling Degree Days 0 0  
Month to date cooling degree days 0 0  
Year to date cooling degree days 467 314  
Moisture  
Dew Point 42 °F    
Average Humidity 93    
Maximum Humidity 100    
Minimum Humidity 86    
Precipitation  
Precipitation 0.02 in 0.15 in 2.83 in (1952)
Month to date precipitation 1.15 3.19  
Year to date precipitation 39.95 43.49  
Sea Level Pressure  
Sea Level Pressure 30.11 in    
Wind  
Wind Speed 11 mph (West)    
Max Wind Speed 25 mph    
Max Gust Speed 32 mph    
Visibility 8 miles    
Events Rain    
T = Trace of Precipitation, MM = Missing Value Source: NWS Daily Summary

Daily Weather History Graph

Daily Weather History Graph

Search for Another Location

Airport or City:

Trip Planner

Search our weather history database for the weather conditions in past years. The results will help you decide how hot, cold, wet, or windy it might be!

Date:

Astronomy

Nov. 22, 2013 Rise Set
Actual Time 6:57 AM EST 4:37 PM EST
Civil Twilight 6:27 AM EST 5:07 PM EST
Nautical Twilight 5:53 AM EST 5:41 PM EST
Astronomical Twilight 5:21 AM EST 6:14 PM EST
Moon 9:08 PM EST (11/22) 10:39 AM EST (11/22)
Length of Visible Light 10h 39m
Length of Day
9h 39m
Waning Gibbous, 78% of the Moon is Illuminated
Nov 22
Waning Gibbous
Nov 25
Last Quarter
Dec 2
New
Dec 9
First Quarter
Dec 17
Full

Hourly Weather History & Observations

Time (EST) Temp. Windchill Dew Point Humidity Pressure Visibility Wind Dir Wind Speed Gust Speed Precip Events Conditions
12:13 AM 41.0 °F 34.7 °F 36.0 °F 82% 30.33 in - SSW 10.4 mph - N/A   Overcast
12:53 AM 39.9 °F 35.1 °F 37.0 °F 89% 30.35 in - SSW 6.9 mph - N/A   Overcast
1:09 AM 39.9 °F 35.8 °F 37.0 °F 89% 30.29 in - SSW 5.8 mph - N/A   Overcast
1:51 AM 39.2 °F 35.0 °F 37.4 °F 93% 30.28 in - South 5.8 mph - N/A   Overcast
1:53 AM 39.9 °F 34.5 °F 37.9 °F 93% 30.32 in - SSW 8.1 mph - N/A   Overcast
2:34 AM 39.9 °F - 39.0 °F 97% 30.27 in 2.0 mi Calm Calm - N/A   Overcast
2:41 AM 39.9 °F 36.7 °F 39.0 °F 97% 30.26 in 1.5 mi SW 4.6 mph - N/A   Overcast
2:53 AM 39.9 °F 35.1 °F 39.0 °F 97% 30.31 in 1.0 mi SW 6.9 mph - N/A   Overcast
3:29 AM 41.0 °F 35.8 °F 39.0 °F 93% 30.24 in - SW 8.1 mph - N/A   Overcast
3:53 AM 41.0 °F 37.1 °F 39.0 °F 93% 30.27 in 5.0 mi SW 5.8 mph - 0.00 in Rain Light Rain
4:35 AM 42.1 °F 36.6 °F 39.9 °F 92% 30.21 in 10.0 mi WSW 9.2 mph - 0.00 in Rain Light Rain
4:53 AM 42.1 °F 37.7 °F 39.9 °F 92% 30.25 in 9.0 mi SW 6.9 mph - 0.00 in Rain Light Rain
5:46 AM 43.0 °F 36.8 °F 39.9 °F 89% 30.18 in 8.0 mi WSW 11.5 mph 19.6 mph 0.00 in   Overcast
6:25 AM 43.0 °F 36.8 °F 39.9 °F 89% 30.17 in 10.0 mi WSW 11.5 mph - 0.00 in   Overcast
6:53 AM 43.0 °F 37.7 °F 39.9 °F 89% 30.20 in 8.0 mi WSW 9.2 mph - 0.00 in Rain Light Rain
7:53 AM 43.0 °F 37.2 °F 39.9 °F 89% 30.19 in - West 10.4 mph - 0.00 in Rain Light Rain
8:42 AM 43.0 °F 37.7 °F 41.0 °F 93% 30.14 in 4.0 mi West 9.2 mph - 0.00 in   Overcast
8:53 AM 43.0 °F 37.7 °F 41.0 °F 93% 30.18 in - West 9.2 mph - 0.00 in   Overcast
9:53 AM 44.1 °F 38.1 °F 42.1 °F 93% 30.16 in - West 11.5 mph - N/A   Overcast
10:53 AM 46.0 °F 40.2 °F 43.0 °F 89% 30.14 in 9.0 mi West 12.7 mph - N/A   Overcast
11:26 AM 46.9 °F - 44.1 °F 90% 30.09 in - WNW 15.0 mph 20.7 mph N/A   Overcast
11:53 AM 46.9 °F - 44.1 °F 90% 30.10 in 10.0 mi West 13.8 mph - N/A   Overcast
12:44 PM 48.0 °F - 44.1 °F 86% 30.06 in 10.0 mi West 12.7 mph - N/A   Overcast
12:53 PM 48.0 °F - 44.1 °F 86% 30.08 in 10.0 mi West 16.1 mph 23.0 mph N/A   Overcast
1:00 PM 46.9 °F - 44.1 °F 90% 30.05 in 10.0 mi West 13.8 mph 23.0 mph N/A   Overcast
1:36 PM 48.0 °F - 44.1 °F 86% 30.03 in 10.0 mi West 10.4 mph - N/A   Overcast
1:53 PM 48.0 °F - 44.1 °F 86% 30.06 in 10.0 mi West 10.4 mph 18.4 mph N/A   Overcast
2:53 PM 48.0 °F - 44.1 °F 86% 30.04 in - West 10.4 mph - N/A   Overcast
3:07 PM 48.0 °F - 44.1 °F 86% 30.01 in 10.0 mi West 11.5 mph 23.0 mph N/A   Overcast
3:53 PM 48.0 °F - 45.0 °F 89% 30.03 in 10.0 mi West 15.0 mph - N/A   Overcast
4:15 PM 46.9 °F - 45.0 °F 93% 29.99 in 9.0 mi West 10.4 mph - N/A   Overcast
4:53 PM 48.0 °F - 45.0 °F 89% 30.00 in - West 10.4 mph - N/A   Overcast
5:53 PM 46.9 °F - 45.0 °F 93% 30.00 in - West 11.5 mph - N/A   Overcast
6:39 PM 48.0 °F - 45.0 °F 89% 29.95 in - West 9.2 mph - 0.00 in   Overcast
6:53 PM 48.0 °F - 45.0 °F 89% 29.98 in - West 9.2 mph - 0.00 in   Overcast
7:28 PM 48.0 °F - 45.0 °F 89% 29.95 in 4.0 mi West 11.5 mph - N/A   Overcast
7:53 PM 48.0 °F - 45.0 °F 89% 29.98 in - West 9.2 mph - 0.00 in Rain Light Rain
8:53 PM 46.9 °F - 45.0 °F 93% 29.96 in - West 11.5 mph - 0.00 in   Overcast
9:53 PM 46.9 °F - 45.0 °F 93% 29.96 in - WNW 12.7 mph - N/A   Overcast
10:01 PM 46.9 °F - 44.1 °F 90% 29.94 in 10.0 mi WNW 12.7 mph 24.2 mph N/A   Overcast
10:26 PM 46.9 °F - 44.1 °F 90% 29.94 in 10.0 mi NW 10.4 mph 18.4 mph N/A   Overcast
10:53 PM 45.0 °F 37.6 °F 41.0 °F 86% 29.97 in - NW 17.3 mph 27.6 mph 0.00 in Rain Light Rain
11:20 PM 44.1 °F 36.8 °F 41.0 °F 89% 29.95 in - NW 16.1 mph 26.5 mph 0.00 in Rain Light Rain
11:27 PM 44.1 °F 36.8 °F 41.0 °F 89% 29.95 in - NW 16.1 mph 21.9 mph 0.00 in Rain Light Rain
11:53 PM 42.1 °F 33.3 °F 37.9 °F 85% 29.99 in - NW 19.6 mph 32.2 mph 0.00 in Rain Light Rain